Flag for Canada Weather past 2 weeks in Yellowknife, Northwest Territories, Canada

Now
48 °F

Passing clouds.


Feels Like: 44 °F
Forecast: 29 / 60 °F
Wind: 9 mph from West

Location: Yellowknife

Current Time: May 28, 2015 at 2:30:10 PM

Latest Report: May 28, 2015 at 2:00 PM


Visibility: 15 mi

Pressure: 30.51 "Hg

Humidity: 34%

Dew point: 21 °F

Location of YellowknifeLocation

Historic Weather in Yellowknife — Graph

°F

Yellowknife temperature yesterday

Maximum temperature yesterday: 45 °F (at 12:00 AM)
Minimum temperature yesterday: 36 °F (at 4:45 AM)
Average temperature yesterday: 40 °F

Past Weeks' High & Low Weather Summary

 TemperatureHumidityPressure
High79 °F (May 21, 7:00 PM)76% (May 15, 6:00 AM)30.57 "Hg (May 15, 6:00 AM)
Low18 °F (May 16, 4:00 AM)20% (May 18, 4:00 PM)29.63 "Hg (May 14, 9:00 PM)
Average51 °F45%30.15 "Hg
* Reported May 13 1:00 PM — May 28 1:00 PM, Yellowknife, Weather by CustomWeather, © 2015

Note: Actual official high and low records may vary slightly from our data, if they occured in-between our weather recording intervals... More about our weather records

Advertising

Yellowknife weather history for previous 24 hours

 ConditionsComfort  
Time TempWeatherWind HumidityBarometerVisibility
1:00 PM
Thu, May 28
46 °FPassing clouds.10 mph40%30.51 "Hg15 mi
12:00 PM46 °FPassing clouds.5 mph34%30.52 "Hg15 mi
11:00 AM45 °FPassing clouds.7 mph37%30.53 "Hg15 mi
10:00 AM43 °FPassing clouds.5 mph42%30.54 "Hg15 mi
9:00 AM39 °FPassing clouds.7 mph48%30.55 "Hg15 mi
8:00 AM37 °FPassing clouds.7 mph52%30.55 "Hg15 mi
7:00 AM36 °FPassing clouds.7 mph56%30.56 "Hg15 mi
6:00 AM32 °FPassing clouds.3 mph64%30.56 "Hg15 mi
5:00 AM28 °FPassing clouds.2 mph74%30.55 "Hg15 mi
4:00 AM30 °FPassing clouds.2 mph69%30.55 "Hg15 mi
3:00 AM32 °FPassing clouds.5 mph64%30.54 "Hg15 mi
2:00 AM30 °FPassing clouds.3 mph69%30.53 "Hg15 mi
1:00 AM34 °FPassing clouds.6 mph60%30.51 "Hg15 mi
12:00 AM37 °FPassing clouds.8 mph48%30.50 "Hg15 mi
11:00 PM
Wed, May 27
39 °FPassing clouds.8 mph48%30.48 "Hg15 mi
10:00 PM41 °FPassing clouds.9 mph42%30.47 "Hg15 mi
9:00 PM43 °FPassing clouds.14 mph39%30.45 "Hg15 mi
8:00 PM43 °FPassing clouds.13 mph36%30.45 "Hg15 mi
7:00 PM45 °FPassing clouds.14 mph34%30.43 "Hg15 mi
6:00 PM45 °FPassing clouds.15 mph34%30.43 "Hg15 mi
5:00 PM45 °FPassing clouds.15 mph37%30.41 "Hg15 mi
4:00 PM43 °FPassing clouds.12 mph36%30.41 "Hg15 mi
3:00 PM43 °FPassing clouds.17 mph39%30.40 "Hg15 mi
2:00 PM41 °FPassing clouds.17 mph42%30.38 "Hg15 mi
Weather by CustomWeather, © 2015

See weather overviewHow to use our weather pages